Location: Boiro
(42.6475°N, 8.8834°W)
Time: 16:22:03
(UTC+01:00)

Vanguard 2 - Pass Details

Date: 03 December 2021
Orbit: 553 x 2936 km, 32.9° (Epoch: 21 January)

Event Time Altitude Azimuth Distance (km) Brightness Sun altitude
Rises 14:41:06 0° 223° (SW) 2,839 11.6 22.9°
Reaches altitude 10° 14:43:33 10° 206° (SSW) 2,080 11.8 22.7°
Maximum altitude 14:47:10 22° 155° (SSE) 1,702 10.2 22.5°
Drops below altitude 10° 14:51:54 10° 108° (ESE) 2,823 10.5 22.2°
Sets 14:55:55 0° 94° (E) 4,212 11.1 21.9°
